This is the latest recevied weather packets stored in our database for station/object KU9TRY. If no packets are shown the sender has not sent any weather packets the latest 10 day(s).
| Time | Temp. | Humidity | Pressure | Rain* | Wind** | Luminosity | Snow |
|---|---|---|---|---|---|---|---|
| 1777731828 | 15° C | 46% | 1017.5 hPa | 0 mm | - | 672 W/m² | - |
| 1777731525 | 14.44° C | 47% | 1017.8 hPa | 0 mm | - | 654 W/m² | - |
| 1777731223 | 14.44° C | 47% | 1017.5 hPa | 0 mm | - | 636 W/m² | - |
| 1777730920 | 14.44° C | 46% | 1017.7 hPa | 0 mm | - | 618 W/m² | - |
| 1777730618 | 13.89° C | 50% | 1017.6 hPa | 0 mm | - | 599 W/m² | - |
| 1777730314 | 13.89° C | 54% | 1017.4 hPa | 0 mm | - | 579 W/m² | - |
| 1777730011 | 13.33° C | 55% | 1017.4 hPa | 0 mm | - | 560 W/m² | - |
| 1777729707 | 12.78° C | 60% | 1017.2 hPa | 0 mm | - | 541 W/m² | - |
| 1777729404 | 12.22° C | 60% | 1017.5 hPa | 0 mm | - | 73 W/m² | - |
| 1777729100 | 12.22° C | 61% | 1017.6 hPa | 0 mm | - | 85 W/m² | - |
| 1777728797 | 11.67° C | 64% | 1017.4 hPa | 0 mm | - | 68 W/m² | - |
| 1777728494 | 11.67° C | 66% | 1017.6 hPa | 0 mm | - | 77 W/m² | - |
| 1777728192 | 11.11° C | 68% | 1017.6 hPa | 0 mm | - | 61 W/m² | - |
| 1777727889 | 10.56° C | 69% | 1017.4 hPa | 0 mm | - | 60 W/m² | - |
| 1777727585 | 10.56° C | 75% | 1017.5 hPa | 0 mm | - | 59 W/m² | - |
| 1777727283 | 10° C | 72% | 1017.4 hPa | 0 mm | - | 58 W/m² | - |
| 1777726980 | 10° C | 73% | 1017.6 hPa | 0 mm | - | 57 W/m² | - |
| 1777726676 | 10° C | 73% | 1017.6 hPa | 0 mm | - | 55 W/m² | - |
| 1777726374 | 9.44° C | 74% | 1017.4 hPa | 0 mm | - | 54 W/m² | - |
| 1777726070 | 8.89° C | 76% | 1017.5 hPa | 0 mm | - | 52 W/m² | - |
| 1777725767 | 8.89° C | 85% | 1017.4 hPa | 0 mm | - | 49 W/m² | - |
| 1777725466 | 8.33° C | 87% | 1017.6 hPa | 0 mm | - | 48 W/m² | - |
| 1777725163 | 7.78° C | 88% | 1017.5 hPa | 0 mm | - | 46 W/m² | - |
| 1777724859 | 7.78° C | 90% | 1017.5 hPa | 0 mm | - | 45 W/m² | - |
| 1777724555 | 7.22° C | 90% | 1017.4 hPa | 0 mm | - | 46 W/m² | - |
* Rain latest hour (hover to see other rain measurements)
** Current wind speed in m/s (hover to see current wind gust speed)